Whiteman AFB, MO

12:47 PM CDT on May 21, 2018 (GMT -0500)
Whiteman Air Force Base

Weather History for KSZL - February, 2014

Change the Weather History Date:

Saturday, February 1, 2014

  Actual Average Record
Temperature  
Mean Temperature 25 °F -  
Max Temperature 28 °F 40 °F 62 °F (2003)
Min Temperature 22 °F 22 °F 6 °F (2001)
Degree Days  
Heating Degree Days 40    
Moisture  
Dew Point 22 °F    
Average Humidity 89    
Maximum Humidity 94    
Minimum Humidity 85    
Precipitation  
Precipitation 0.13 in - - ()
Sea Level Pressure  
Sea Level Pressure 30.04 in    
Wind  
Wind Speed 2 mph (ENE)    
Max Wind Speed 8 mph    
Max Gust Speed -    
Visibility 8 miles    
Events Rain , Snow    
Averages and records for this station are not official NWS values.
T = Trace of Precipitation, MM = Missing Value Source: NWS Daily Summary

Daily Weather History Graph

Daily Weather History Graph

Search for Another Location

Airport or City:

Astronomy

Feb. 01, 2014 Rise Set
Actual Time 7:20 AM CST 5:36 PM CST
Civil Twilight 6:52 AM CST 6:04 PM CST
Nautical Twilight 6:20 AM CST 6:35 PM CST
Astronomical Twilight 5:48 AM CST 7:07 PM CST
Moon 8:11 AM CST (2/1) 8:09 PM CST (2/1)
Length of Visible Light 11h 12m
Length of Day
10h 15m
Waxing Crescent, 5% of the Moon is Illuminated
Feb 1
Waxing Crescent
Feb 6
First Quarter
Feb 14
Full
Feb 22
Last Quarter
Mar 1
New

Hourly Weather History & Observations

Time (CST) Temp. Windchill Dew Point Humidity Pressure Visibility Wind Dir Wind Speed Gust Speed Precip Events Conditions
12:58 AM 23.9 °F 15.0 °F 22.1 °F 93% 29.92 in 3.0 mi NE 8.1 mph - 0.01 in Rain Light Freezing Rain
1:28 AM 23.0 °F 13.9 °F 21.2 °F 93% 29.91 in 2.5 mi NE 8.1 mph - N/A   Light Ice Pellets
1:58 AM 25.7 °F 20.1 °F 24.3 °F 94% 29.87 in 6.0 mi East 4.6 mph - 0.07 in   Light Freezing Drizzle
2:58 AM 26.8 °F - 25.2 °F 94% 29.86 in 6.0 mi Calm Calm - 0.01 in Rain Light Freezing Rain
3:58 AM 26.8 °F - 25.2 °F 94% 29.86 in 6.0 mi Calm Calm - 0.01 in   Light Freezing Drizzle
4:58 AM 27.9 °F - 26.1 °F 93% 29.86 in 10.0 mi Calm Calm - 0.03 in   Light Freezing Drizzle
5:58 AM 28.6 °F - 27.0 °F 94% 29.85 in 10.0 mi Calm Calm - 0.00 in   Light Freezing Drizzle
6:58 AM 27.3 °F - 25.9 °F 94% 29.87 in 10.0 mi Calm Calm - 0.00 in Rain Light Freezing Rain
7:58 AM 25.7 °F - 23.9 °F 93% 29.90 in 2.0 mi Calm Calm - 0.00 in   Light Freezing Drizzle
8:58 AM 23.4 °F - 21.6 °F 93% 29.93 in 2.0 mi Calm Calm - 0.00 in   Light Freezing Drizzle
9:58 AM 22.5 °F - 20.5 °F 92% 29.96 in 1.5 mi Calm Calm - 0.00 in   Light Freezing Drizzle
10:58 AM 22.6 °F - 21.0 °F 93% 30.00 in 1.5 mi Calm Calm - 0.00 in   Light Freezing Drizzle
11:58 AM 22.6 °F - 20.5 °F 91% 29.99 in 3.0 mi Calm Calm - 0.00 in   Light Freezing Drizzle
12:15 PM 23.0 °F - 21.2 °F 93% 29.94 in 5.0 mi Calm Calm - N/A   Overcast
12:58 PM 24.1 °F - 21.6 °F 90% 29.99 in 5.0 mi Calm Calm - N/A   Overcast
1:58 PM 25.2 °F - 22.5 °F 89% 29.97 in 10.0 mi Calm Calm - N/A   Overcast
2:58 PM 26.1 °F - 23.2 °F 89% 30.00 in 10.0 mi Calm Calm - N/A   Overcast
3:28 PM 26.6 °F - 23.0 °F 86% 29.98 in 10.0 mi Calm Calm - N/A   Overcast
3:43 PM 26.6 °F - 23.0 °F 86% 29.99 in 10.0 mi Calm Calm - N/A   Overcast
3:53 PM 26.6 °F - 23.0 °F 86% 29.99 in 10.0 mi Calm Calm - N/A   Overcast
3:58 PM 25.9 °F - 22.8 °F 88% 30.04 in 10.0 mi Calm Calm - N/A   Overcast
4:18 PM 26.6 °F - 23.0 °F 86% 30.00 in 10.0 mi Calm Calm - N/A   Overcast
4:43 PM 26.6 °F - 23.0 °F 86% 30.03 in 10.0 mi Calm Calm - N/A   Overcast
4:58 PM 25.9 °F - 22.5 °F 87% 30.08 in 10.0 mi Calm Calm - N/A   Overcast
5:51 PM 24.8 °F - 21.2 °F 86% 30.04 in 10.0 mi Calm Calm - N/A   Mostly Cloudy
5:56 PM 24.8 °F - 21.2 °F 86% 30.03 in 10.0 mi Calm Calm - N/A   Mostly Cloudy
5:58 PM 25.3 °F - 22.1 °F 87% 30.06 in 10.0 mi Calm Calm - 0.00 in   Mostly Cloudy
6:18 PM 24.8 °F - 21.2 °F 86% 30.06 in 10.0 mi Calm Calm - N/A   Scattered Clouds
6:39 PM 24.8 °F - 21.2 °F 86% 30.05 in 10.0 mi Calm Calm - N/A   Scattered Clouds
6:58 PM 24.6 °F - 21.2 °F 87% 30.11 in 10.0 mi Calm Calm - 0.00 in   Scattered Clouds
7:58 PM 25.0 °F - 21.6 °F 87% 30.15 in 10.0 mi Calm Calm - N/A   Overcast
8:08 PM 24.8 °F - 21.2 °F 86% 30.11 in 10.0 mi Calm Calm - N/A   Overcast
8:38 PM 24.8 °F - 21.2 °F 86% 30.12 in 10.0 mi Calm Calm - N/A   Overcast
8:58 PM 25.2 °F - 21.4 °F 86% 30.15 in 10.0 mi Calm Calm - N/A   Overcast
9:58 PM 25.2 °F - 21.2 °F 85% 30.20 in 10.0 mi Calm Calm - N/A   Overcast
10:06 PM 24.8 °F - 21.2 °F 86% 30.17 in 10.0 mi Calm Calm - N/A   Overcast
10:21 PM 24.8 °F - 21.2 °F 86% 30.17 in 7.0 mi Calm Calm - N/A Snow Light Snow
10:31 PM 24.8 °F - 21.2 °F 86% 30.18 in 4.0 mi Calm Calm - N/A Snow Light Snow
10:41 PM 24.8 °F - 21.2 °F 86% 30.18 in 5.0 mi Calm Calm - N/A Snow Light Snow
10:46 PM 24.8 °F - 21.2 °F 86% 30.18 in 5.0 mi Calm Calm - N/A Snow Light Snow
10:56 PM 24.8 °F - 21.2 °F 86% 30.18 in 6.0 mi Calm Calm - N/A Snow Light Snow
10:58 PM 24.8 °F - 21.7 °F 88% 30.22 in 6.0 mi Calm Calm - 0.00 in Snow Light Snow
11:23 PM 24.8 °F - 21.2 °F 86% 30.18 in 10.0 mi Calm Calm - N/A Snow Light Snow
11:28 PM 24.8 °F - 21.2 °F 86% 30.19 in 10.0 mi Calm Calm - N/A Snow Light Snow
11:58 PM 24.6 °F - 21.7 °F 89% 30.24 in 10.0 mi Calm Calm - 0.00 in   Overcast